Regional Weather Roundup
Issued by NWS Northern Indiana

Home | Current Version | Previous Version | Graphics & Text | Print | Product List | Glossary On
Versions: 1 2 3 4 5 6 7 8 9 10 11 12 13 14 15 16 17 18 19 20 21 22 23 24 25 26 27 28 29 30 31 32 33 34 35 36 37 38 39 40 41 42 43 44 45 46 47 48 49 50
000
ASUS43 KIWX 062200
RWRIWX

KIWX WEATHER ROUNDUP
NATIONAL WEATHER SERVICE NORTHERN INDIANA
600 PM EDT WED MAY 06 2015

NOTE: "FAIR" INDICATES FEW OR NO CLOUDS BELOW 12,000 FEET WITH NO
SIGNIFICANT WEATHER AND/OR OBSTRUCTIONS TO VISIBILITY.

* THESE STATIONS ARE NOT UNDER NWS QUALITY CONTROL. THEY ALSO MAY NOT
  REPORT WEATHER SUCH AS PRECIPITATION OR FOG.

INZ001>027-062300-
NORTHERN INDIANA

CITY           SKY/WX    TMP DP  RH WIND       PRES   REMARKS
GARY*          MOSUNNY   63 N/A N/A NE7       30.10F HAZE
SOUTH BEND     PTSUNNY   80  58  46 SE8       30.11F
ELKHART*       MOSUNNY   81  55  41 SE5       30.12F
GOSHEN         MOSUNNY   81  61  50 S6        30.11F
ANGOLA*        SUNNY     75  63  64 SE3       30.15F
FORT WAYNE     MOSUNNY   82  60  47 VRB3      30.13F

$$
INZ028>050-062300-
CENTRAL INDIANA

CITY           SKY/WX    TMP DP  RH WIND       PRES   REMARKS
LAFAYETTE      MOSUNNY   82  48  30 SW8       30.08F
KOKOMO*        SUNNY     81  54  39 SE6       30.10S
MUNCIE*        PTSUNNY   83  50  31 CALM      30.12F
INDIANAPOLIS   MOSUNNY   82  52  35 SW3       30.10F

$$
MIZ043>046-050>051-056>058-064>065-071>073-077>080-062300-
SOUTHWEST LOWER MICHIGAN

CITY           SKY/WX    TMP DP  RH WIND       PRES   REMARKS
BATTLE CREEK   SUNNY     77  61  57 VRB6      30.15F
BENTON HARBOR  SUNNY     76  57  51 NW6       30.10F
COLDWATER*     SUNNY     73  61  65 SE3       30.15F
HILLSDALE*     SUNNY     71  62  74 E6        30.18F
HOLLAND        MOSUNNY   77  63  61 E8        30.12F
GRAND RAPIDS   MOSUNNY   75  60  59 E6        30.14F
KALAMAZOO      SUNNY     77  61  57 CALM      30.14F
STURGIS*       SUNNY     77  63  61 S5        30.13F
THREE RIVERS*  FAIR      78  60  54 S3        30.13F

$$
OHZ001>008-015>018-024>025-062300-
NORTHWEST OHIO

CITY           SKY/WX    TMP DP  RH WIND       PRES   REMARKS
DEFIANCE       SUNNY     76  61  59 NE6       30.15F
FINDLAY        SUNNY     79  59  50 NE9       30.14F
TOLEDO EXPRESS SUNNY     68  57  68 VRB6      30.17F
TOLEDO METCALF SUNNY     66  56  70 E12       30.19F
LIMA           SUNNY     79  58  48 N8        30.14F

$$
AND FOR LAKE MICHIGAN COASTAL AND OPEN LAKE BUOY OBSERVATIONS

STATION/POSITION TEMP    WIND        PRES    VSBY  WAVE
                 AIR SEA DIR/SP/G                  HT/PER
                 (F)     (DEG/KT/KT) (MB)    (MI)  (FT/S)
CALUMET HARBOR    52     350/  6/  8   N/A
MICHIGAN CITY     56      20/  9/  9   N/A
BURNS HARBOR      57      80/ 13/ 14 1019.3F
SAINT JOSEPH      62     360/  7/  9 1019.6F
4 MI NW BRIDGMAN  56 52   60/ 10/ 10   N/A           1
MICHIGAN CITY     54 53   80/  8/ 10   N/A           1

$$
&&



USA.gov is the U.S. government's official web portal to all federal, state and local government web resources and services.